This demonstration page uses our WeatherBlox Daily Observations layout. Learn more.

Left ArrowRight Arrow

38.89511, -77.03637

Hourly Observations for May 21, 2017

Temp ( °F °C ) Dew Point ( °F °C ) Humidity (%) Winds ( mph kmh ) Pressure ( in mb ) Visibility ( mi km ) Precip ( " mm )
12:52 am 00:52 Cloudy 61 16.1 43 6.1 52 52 E 6 9 30.31 1027 10 16 0.00 0.00
1:52 am 01:52 Cloudy 61 16.1 44 6.7 54 54 ESE 8 13 30.30 1026 10 16 0.00 0.00
2:52 am 02:52 Cloudy 60 15.6 43 6.1 53 53 Calm 30.31 1026 10 16 0.00 0.00
3:52 am 03:52 Cloudy 60 15.6 42 5.6 52 52 E 6 9 30.30 1026 10 16 0.00 0.00
4:52 am 04:52 Cloudy 60 15.6 42 5.6 52 52 E 7 11 30.29 1026 10 16 0.00 0.00
5:52 am 05:52 Mostly Cloudy 59 15 41 5 51 51 E 10 17 30.25 1025 10 16 0.00 0.00
6:52 am 06:52 Mostly Cloudy 59 15 43 6.1 56 56 ESE 6 9 30.30 1026 10 16 0.00 0.00
7:52 am 07:52 Cloudy 59 15 46 7.8 62 62 ESE 5 7 30.33 1027 10 16 0.00 0.00
8:52 am 08:52 Cloudy 60 15.6 48 8.9 65 65 E 6 9 30.33 1027 10 16 0.00 0.00
9:52 am 09:52 Cloudy 63 17.2 50 10 63 63 E 8 13 30.32 1027 10 16 0.00 0.00
10:52 am 10:52 Cloudy 63 17.2 47 8.3 56 56 SE 6 9 30.32 1027 10 16 0.00 0.00
11:52 am 11:52 Cloudy 64 17.8 47 8.3 54 54 ESE 8 13 30.31 1027 10 16 0.00 0.00
12:52 pm 12:52 Cloudy 66 18.9 48 8.9 52 52 ESE 9 15 30.30 1026 10 16 0.00 0.00
1:52 pm 13:52 Cloudy 66 18.9 50 10 56 56 E 8 13 30.28 1025 10 16 0.00 0.00
2:52 pm 14:52 Cloudy 67 19.4 50 10 55 55 SE 7 11 30.27 1025 10 16 0.00 0.00
3:52 pm 15:52 Cloudy 68 20 51 10.6 55 55 SSE 10 17 30.24 1024 10 16 0.00 0.00
4:52 pm 16:52 Cloudy 67 19.4 51 10.6 57 57 SE 9 15 30.23 1024 10 16 0.00 0.00
5:52 pm 17:52 Mostly Cloudy 68 20 51 10.6 55 55 ESE 10 17 30.21 1023 10 16 0.00 0.00
6:52 pm 18:52 Cloudy 67 19.4 50 10 55 55 ESE 10 17 30.20 1023 10 16 0.00 0.00
7:52 pm 19:52 Cloudy 67 19.4 51 10.6 57 57 S 10 17 30.21 1023 10 16 0.00 0.00
8:52 pm 20:52 Cloudy 66 18.9 49 9.4 54 54 SSE 8 13 30.21 1023 10 16 0.00 0.00
9:52 pm 21:52 Cloudy 65 18.3 49 9.4 56 56 SSE 7 11 30.21 1023 10 16 0.00 0.00
10:52 pm 22:52 Cloudy 65 18.3 51 10.6 61 61 SSE 8 13 30.20 1023 10 16 0.00 0.00
11:52 pm 23:52 Cloudy 64 17.8 52 11.1 65 65 SSE 7 11 30.19 1022 10 16 0.00 0.00

Powered by AerisWeather